GW3217 Weather Reports


Display with metric or nautical units.
time (UTC)temp
F
wind
direction
speed
MPH
gust
MPH
rain 1hr
in
rain 24hr
in
rain mn
in
humidity
%
barometer
mb
20260510023853 50 207 0.0 0.0 0.00 0.34 0.34 99 1013.7
20260510023351 50 210 0.0 0.0 0.00 0.34 0.34 99 1013.7
20260510022848 50 226 0.0 0.0 0.00 0.34 0.34 99 1013.7
20260510022347 50 244 0.0 0.0 0.00 0.34 0.34 99 1013.7
20260510021845 50 248 0.0 0.0 0.00 0.34 0.34 99 1013.7
20260510021344 50 248 0.0 0.0 0.00 0.34 0.34 99 1013.5
20260510020840 50 248 0.0 0.0 0.00 0.34 0.34 99 1013.6
20260510020335 50 225 0.0 0.0 0.00 0.34 0.34 99 1013.5
20260510015831 50 225 0.0 0.0 0.00 0.34 0.34 99 1013.4
20260510015327 50 225 0.0 0.0 0.00 0.34 0.34 99 1013.4
20260510014822 50 246 0.0 0.0 0.00 0.34 0.34 99 1013.4
20260510014320 50 237 0.0 0.0 0.00 0.34 0.34 99 1013.6
20260510013816 50 199 0.0 0.0 0.00 0.34 0.34 99 1013.4
20260510013312 50 219 0.0 0.0 0.00 0.34 0.34 99 1013.2
20260510012807 50 215 0.0 0.0 0.00 0.34 0.34 99 1013.2
20260510012307 50 215 0.0 0.0 0.00 0.34 0.34 99 1013.3
20260510011801 50 243 0.0 0.0 0.00 0.34 0.34 99 1013.3
20260510011257 50 246 0.0 0.0 0.00 0.34 0.34 99 1013.0
20260510010754 49 211 0.0 0.0 0.00 0.34 0.34 99 1013.1
20260510010250 49 210 0.0 0.0 0.00 0.34 0.34 99 1013.0
20260510005748 49 213 0.0 0.0 0.00 0.34 0.34 99 1012.9
20260510005244 50 213 0.0 0.0 0.00 0.34 0.34 99 1013.0
20260510004742 50 213 0.0 0.0 0.00 0.34 0.34 99 1013.0
20260510004239 50 238 0.0 0.0 0.00 0.34 0.34 99 1013.0
20260510003736 50 220 0.0 0.0 0.00 0.34 0.34 99 1012.9
20260510003233 50 209 0.0 0.0 0.00 0.34 0.34 99 1012.8
20260510002731 50 203 0.0 0.0 0.00 0.34 0.34 99 1013.0
20260510002229 50 215 0.0 0.0 0.00 0.34 0.34 99 1012.6
20260510001725 50 241 0.0 0.0 0.00 0.34 0.34 99 1012.6
20260510001224 50 238 0.0 0.0 0.00 0.34 0.34 99 1012.6
20260510000720 50 210 0.0 0.0 0.00 0.34 0.34 99 1012.5
20260510000219 50 266 0.0 0.0 0.00 0.34 0.34 99 1012.4
20260509235714 50 215 0.0 0.0 0.00 0.34 0.34 99 1012.6
20260509235210 50 213 0.0 0.0 0.00 0.34 0.34 99 1012.6
20260509234706 51 209 0.0 0.0 0.00 0.34 0.34 99 1012.5
20260509234204 51 301 0.0 0.0 0.00 0.34 0.34 99 1012.4
20260509233702 51 229 0.0 0.0 0.00 0.34 0.34 99 1012.8
20260509233159 51 224 0.0 0.0 0.00 0.34 0.34 99 1012.6
20260509232655 51 214 0.0 0.0 0.00 0.34 0.34 99 1012.5
20260509232152 51 203 0.0 0.0 0.00 0.34 0.34 99 1012.6
20260509231649 51 225 0.0 0.0 0.00 0.34 0.34 99 1012.7
20260509231146 51 166 1.0 1.0 0.00 0.34 0.34 99 1012.9
20260509230643 51 217 0.0 1.0 0.00 0.34 0.34 99 1012.6
20260509230140 51 219 0.0 0.0 0.00 0.34 0.34 99 1012.7
20260509225636 51 159 0.0 0.0 0.00 0.34 0.34 99 1012.6
20260509225131 51 40 0.0 1.0 0.00 0.34 0.34 99 1012.9
20260509224627 51 184 0.0 0.0 0.00 0.34 0.34 99 1012.7
20260509224124 51 209 0.0 0.0 0.00 0.34 0.34 99 1012.7
20260509223621 51 220 0.0 0.0 0.07 0.34 0.34 99 1012.7
20260509223119 51 216 0.0 0.0 0.07 0.34 0.34 99 1012.6
20260509222614 51 223 0.0 0.0 0.05 0.33 0.33 99 1012.8
20260509222110 51 203 0.0 0.0 0.05 0.33 0.33 99 1012.9
20260509221606 51 241 0.0 0.0 0.05 0.33 0.33 99 1013.0
20260509221102 51 195 0.0 0.0 0.00 0.32 0.32 99 1012.7
20260509220558 51 71 0.0 0.0 0.00 0.32 0.32 99 1013.0
20260509220055 50 208 0.0 0.0 0.00 0.32 0.32 99 1013.2
20260509215550 51 208 0.0 0.0 0.07 0.32 0.32 99 1013.2
20260509215048 51 206 0.0 0.0 0.07 0.32 0.32 99 1013.4
20260509214545 51 227 0.0 0.0 0.05 0.31 0.31 99 1013.4
20260509214042 51 218 0.0 0.0 0.05 0.31 0.31 99 1013.3
20260509213538 51 166 0.0 0.0 0.00 0.30 0.30 99 1013.5
20260509213035 51 121 0.0 0.0 0.07 0.30 0.30 99 1013.3
20260509212532 51 213 0.0 0.0 0.14 0.30 0.30 99 1013.5
20260509212029 51 175 0.0 0.0 0.19 0.29 0.29 99 1013.1
20260509211524 51 222 0.0 0.0 0.17 0.28 0.28 99 1013.2
20260509211021 51 98 2.0 2.0 0.17 0.26 0.26 99 1013.3
20260509210518 51 234 0.0 0.0 0.31 0.25 0.25 99 1013.5
20260509210014 51 264 0.0 0.0 0.24 0.23 0.23 99 1013.5
20260509205509 51 240 0.0 0.0 0.12 0.20 0.20 99 1013.8
20260509205005 51 245 0.0 0.0 0.14 0.19 0.19 99 1013.4
20260509204501 51 245 0.0 0.0 0.12 0.18 0.18 99 1013.3
20260509203957 51 242 0.0 0.0 0.05 0.17 0.17 99 1013.4
20260509203453 51 253 4.0 4.0 0.07 0.16 0.16 99 1013.4
20260509202951 51 226 1.0 1.0 0.07 0.16 0.16 99 1013.3
20260509202447 52 232 2.0 2.0 0.00 0.15 0.15 99 1013.1
20260509201942 52 243 0.0 0.0 0.05 0.15 0.15 99 1013.4
20260509201437 52 246 0.0 0.0 0.05 0.15 0.15 99 1013.4
20260509200935 52 250 0.0 0.0 0.00 0.14 0.14 99 1013.5
20260509200434 52 251 0.0 0.0 0.00 0.14 0.14 99 1013.5
20260509195931 52 246 0.0 0.0 0.00 0.14 0.14 99 1013.6
20260509195427 53 245 0.0 0.0 0.07 0.14 0.14 99 1013.5
20260509194927 52 250 0.0 0.0 0.07 0.14 0.14 99 1013.6
20260509194422 52 253 0.0 0.0 0.00 0.13 0.13 99 1013.7
20260509193920 52 255 0.0 0.0 0.05 0.13 0.13 99 1013.5
20260509193419 52 259 2.0 2.0 0.05 0.13 0.13 99 1013.5
20260509192916 52 261 2.0 2.0 0.07 0.12 0.12 98 1013.8
20260509192412 52 244 0.0 1.0 0.07 0.12 0.12 98 1013.9
20260509191907 52 251 1.0 3.0 0.05 0.11 0.11 98 1013.9
20260509191403 53 266 4.0 4.0 0.12 0.11 0.11 99 1014.2
20260509190859 53 249 0.0 0.0 0.12 0.10 0.10 99 1014.1
20260509190356 53 245 1.0 1.0 0.12 0.09 0.09 98 1014.3
20260509185854 53 258 2.0 3.0 0.12 0.08 0.08 98 1014.0
20260509185350 54 282 0.0 0.0 0.05 0.07 0.07 97 1013.9
20260509184848 55 244 0.0 0.0 0.07 0.06 0.06 96 1013.7
20260509184344 55 246 0.0 0.0 0.14 0.06 0.06 94 1013.8
20260509183841 55 252 0.0 0.0 0.07 0.05 0.05 92 1013.6
20260509183336 56 226 0.0 0.0 0.00 0.04 0.04 90 1013.8
20260509182832 56 245 0.0 0.0 0.00 0.04 0.04 88 1013.5
20260509182329 56 244 0.0 0.0 0.00 0.04 0.04 89 1013.7
20260509181826 56 242 0.0 0.0 0.00 0.04 0.04 88 1013.3
20260509181318 56 228 0.0 0.0 0.00 0.04 0.04 88 1013.4
20260509180815 56 263 0.0 0.0 0.00 0.04 0.04 87 1013.4
20260509180311 57 263 0.0 0.0 0.00 0.04 0.04 88 1013.4
20260509175808 56 243 0.0 0.0 0.00 0.04 0.04 89 1013.6
20260509175259 56 217 0.0 0.0 0.00 0.04 0.04 91 1013.4
20260509174755 55 217 0.0 0.0 0.00 0.04 0.04 91 1013.3
20260509174250 55 235 0.0 0.0 0.00 0.04 0.04 91 1013.4
20260509173747 55 244 0.0 0.0 0.00 0.04 0.04 92 1013.3
20260509173242 55 232 0.0 0.0 0.00 0.04 0.04 91 1013.4
20260509172738 55 200 0.0 0.0 0.00 0.04 0.04 92 1013.8
20260509172235 55 200 0.0 0.0 0.00 0.04 0.04 92 1013.4
20260509171731 55 241 0.0 0.0 0.00 0.04 0.04 91 1013.2
20260509171227 55 233 0.0 0.0 0.00 0.04 0.04 91 1013.3
20260509170724 55 218 0.0 0.0 0.00 0.04 0.04 91 1013.6
20260509170220 55 210 0.0 0.0 0.00 0.04 0.04 91 1013.7
20260509165719 56 337 1.0 1.0 0.00 0.04 0.04 91 1014.0
20260509165214 56 190 0.0 0.0 0.00 0.04 0.04 92 1013.9
20260509164710 56 12 1.0 2.0 0.00 0.04 0.04 91 1014.0
20260509164206 55 190 0.0 0.0 0.00 0.04 0.04 92 1014.0
20260509163704 55 248 0.0 0.0 0.00 0.04 0.04 94 1014.2
20260509163200 55 259 0.0 0.0 0.00 0.04 0.04 94 1014.2
20260509162657 54 223 0.0 0.0 0.00 0.04 0.04 95 1014.1
20260509162153 53 218 0.0 0.0 0.00 0.04 0.04 95 1014.3
20260509161649 53 222 0.0 0.0 0.00 0.04 0.04 95 1014.4
20260509161144 53 204 0.0 0.0 0.00 0.04 0.04 95 1014.6
20260509160640 53 236 0.0 0.0 0.00 0.04 0.04 96 1014.3
20260509160136 53 242 0.0 0.0 0.00 0.04 0.04 96 1014.5
20260509155632 53 126 0.0 0.0 0.00 0.04 0.04 95 1014.8
20260509155129 53 238 0.0 0.0 0.05 0.04 0.04 95 1014.8
20260509154624 52 247 0.0 0.0 0.05 0.04 0.04 95 1014.5
20260509154122 52 173 1.0 1.0 0.00 0.03 0.03 95 1014.8
20260509153619 52 237 0.0 0.0 0.00 0.03 0.03 95 1014.6
20260509153116 52 236 0.0 0.0 0.00 0.03 0.03 95 1014.6
20260509152611 52 211 0.0 0.0 0.00 0.03 0.03 95 1014.4
20260509152109 52 238 0.0 0.0 0.00 0.03 0.03 94 1014.6
20260509151605 51 230 0.0 0.0 0.00 0.03 0.03 94 1014.8
20260509151103 51 197 0.0 0.0 0.00 0.03 0.03 93 1014.9
20260509150600 52 229 0.0 0.0 0.00 0.03 0.03 93 1014.9
20260509150058 52 212 0.0 0.0 0.00 0.03 0.03 93 1014.5
20260509145553 52 191 1.0 2.0 0.00 0.03 0.03 92 1014.5
20260509145049 52 230 0.0 0.0 0.00 0.03 0.03 92 1014.8
20260509144546 51 47 1.0 2.0 0.00 0.03 0.03 93 1014.8
20260509144043 51 230 0.0 0.0 0.00 0.03 0.03 93 1014.6
20260509143540 51 220 0.0 0.0 0.00 0.03 0.03 93 1014.6
20260509143032 51 197 2.0 3.0 0.00 0.03 0.03 93 1014.4
20260509142527 51 213 0.0 0.0 0.00 0.03 0.03 93 1014.6
20260509142023 51 226 2.0 2.0 0.00 0.03 0.03 93 1014.4
20260509141520 50 137 1.0 1.0 0.00 0.03 0.03 94 1014.6
20260509141017 50 317 1.0 2.0 0.00 0.03 0.03 95 1014.2
20260509140514 49 205 0.0 0.0 0.00 0.03 0.03 96 1014.6
20260509140012 50 229 0.0 0.0 0.00 0.03 0.03 96 1014.9
20260509135508 49 211 0.0 0.0 0.00 0.03 0.03 96 1014.9
20260509135006 49 244 0.0 0.0 0.00 0.03 0.03 97 1015.2
20260509134503 49 230 0.0 0.0 0.00 0.03 0.03 97 1014.4
20260509134001 49 242 1.0 2.0 0.00 0.03 0.03 97 1014.4
20260509133457 49 181 0.0 0.0 0.00 0.03 0.03 97 1014.4
20260509132955 48 191 0.0 0.0 0.00 0.03 0.03 96 1014.9
20260509132453 49 209 1.0 2.0 0.00 0.03 0.03 96 1014.6
20260509131950 48 34 1.0 2.0 0.00 0.03 0.03 96 1014.8
20260509131447 48 95 2.0 2.0 0.00 0.03 0.03 96 1015.0
20260509130943 48 196 0.0 1.0 0.00 0.03 0.03 96 1015.0
20260509130439 48 169 1.0 2.0 0.00 0.03 0.03 96 1015.1
20260509125936 48 244 0.0 0.0 0.00 0.03 0.03 96 1015.0
20260509125433 47 240 1.0 1.0 0.00 0.03 0.03 96 1015.3
20260509124929 48 240 0.0 0.0 0.00 0.03 0.03 96 1015.0
20260509124426 48 183 0.0 2.0 0.00 0.03 0.03 96 1014.9
20260509123923 47 74 1.0 1.0 0.00 0.03 0.03 96 1014.6
20260509123421 47 239 1.0 1.0 0.00 0.03 0.03 96 1014.6
20260509122916 47 221 1.0 2.0 0.00 0.03 0.03 97 1014.9
20260509122413 46 219 0.0 0.0 0.00 0.03 0.03 97 1015.0
20260509121910 46 177 0.0 0.0 0.07 0.03 0.03 97 1015.3
20260509121407 46 214 0.0 0.0 0.07 0.03 0.03 97 1015.2
20260509120905 46 204 1.0 1.0 0.07 0.03 0.03 97 1015.3
20260509120403 46 246 0.0 0.0 0.00 0.02 0.02 97 1015.1
20260509115901 46 228 0.0 0.0 0.00 0.02 0.02 97 1015.3
20260509115357 45 236 0.0 0.0 0.00 0.02 0.02 97 1015.2
20260509114855 45 235 0.0 0.0 0.00 0.02 0.02 98 1015.3
20260509114354 45 218 0.0 0.0 0.00 0.02 0.02 97 1015.6
20260509113852 45 275 0.0 0.0 0.00 0.02 0.02 98 1015.1
20260509113349 45 221 0.0 0.0 0.00 0.02 0.02 98 1015.1
20260509112846 45 238 0.0 0.0 0.00 0.02 0.02 98 1015.2
20260509112343 45 254 0.0 0.0 0.00 0.02 0.02 98 1015.3
20260509111841 45 207 0.0 0.0 0.00 0.02 0.02 98 1015.4
20260509111337 45 217 0.0 0.0 0.00 0.02 0.02 99 1015.2
20260509110835 45 232 0.0 0.0 0.00 0.02 0.02 99 1015.2
20260509110331 45 211 0.0 0.0 0.00 0.02 0.02 99 1015.2
20260509105829 45 209 0.0 0.0 0.00 0.02 0.02 99 1015.3
20260509105327 45 226 0.0 0.0 0.00 0.02 0.02 99 1015.1
20260509104823 45 216 0.0 0.0 0.00 0.02 0.02 99 1015.2
20260509104320 45 184 0.0 0.0 0.00 0.02 0.02 99 1015.0
20260509103818 44 218 0.0 0.0 0.00 0.02 0.02 99 1014.8
20260509103315 44 216 0.0 0.0 0.00 0.02 0.02 99 1015.1
20260509102814 44 210 0.0 0.0 0.00 0.02 0.02 99 1014.9
20260509102310 44 238 0.0 0.0 0.00 0.02 0.02 99 1015.0
20260509101806 44 239 0.0 0.0 0.00 0.02 0.02 99 1015.3
20260509101303 44 214 0.0 0.0 0.00 0.02 0.02 99 1015.2
20260509100800 44 212 0.0 0.0 0.00 0.02 0.02 99 1015.4
20260509100258 44 226 0.0 0.0 0.00 0.02 0.02 99 1015.4
20260509095754 44 202 0.0 0.0 0.00 0.02 0.02 99 1015.3
20260509095251 45 191 0.0 0.0 0.00 0.02 0.02 99 1015.2
20260509094748 45 197 0.0 0.0 0.00 0.02 0.02 99 1015.3
20260509094245 45 271 0.0 0.0 0.00 0.02 0.02 99 1014.9
20260509093743 45 236 0.0 0.0 0.00 0.02 0.02 99 1015.0
20260509093240 45 236 0.0 0.0 0.00 0.02 0.02 99 1015.0
20260509092738 45 183 0.0 0.0 0.00 0.02 0.02 99 1015.0
20260509092236 45 196 0.0 0.0 0.00 0.02 0.02 99 1015.0
20260509091734 45 218 0.0 0.0 0.00 0.02 0.02 99 1015.0
20260509091230 45 218 0.0 0.0 0.00 0.02 0.02 99 1014.9
20260509090728 45 218 0.0 0.0 0.00 0.02 0.02 99 1015.2
20260509090224 45 218 0.0 0.0 0.00 0.02 0.02 99 1015.0
20260509085722 45 218 0.0 0.0 0.00 0.02 0.02 99 1015.0
20260509085219 45 218 0.0 0.0 0.00 0.02 0.02 99 1015.2
20260509084716 45 217 0.0 0.0 0.00 0.02 0.02 99 1014.9
20260509084212 45 217 0.0 0.0 0.00 0.02 0.02 99 1015.0
20260509083711 45 211 0.0 0.0 0.00 0.02 0.02 99 1014.9
20260509083207 45 211 0.0 0.0 0.00 0.02 0.02 99 1015.0
20260509082704 45 210 0.0 0.0 0.00 0.02 0.02 99 1014.9
20260509082200 45 171 0.0 0.0 0.00 0.02 0.02 99 1014.9
20260509081657 45 176 0.0 0.0 0.00 0.02 0.02 99 1014.9
20260509081154 45 183 0.0 0.0 0.00 0.02 0.02 98 1014.9
20260509080653 46 157 0.0 0.0 0.00 0.02 0.02 98 1014.9
20260509080150 46 182 0.0 0.0 0.05 0.02 0.02 98 1014.9
20260509075648 45 202 0.0 0.0 0.05 0.02 0.02 98 1015.0
20260509075145 45 217 0.0 0.0 0.00 0.01 0.01 97 1015.0
20260509074642 46 240 0.0 0.0 0.00 0.01 0.01 97 1015.1
20260509074139 46 170 0.0 0.0 0.07 0.01 0.01 97 1014.5
20260509073636 46 227 0.0 0.0 0.07 0.01 0.01 96 1014.6
20260509073132 46 207 0.0 0.0 0.00 0.00 0.00 96 1014.9
20260509072629 46 204 0.0 0.0 0.00 0.00 0.00 95 1014.9
20260509072126 46 229 0.0 0.0 0.00 0.00 0.00 94 1015.1
20260509071622 46 207 0.0 0.0 0.00 0.00 0.00 93 1014.9
20260509071120 46 207 0.0 0.0 0.00 0.00 0.00 93 1015.0
20260509070617 46 207 0.0 0.0 0.00 0.00 0.00 93 1014.9
20260509070113 46 207 0.0 0.0 0.00 0.00 0.00 92 1015.0
20260509065608 46 207 0.0 0.0 0.00 0.00 0.00 90 1014.8
20260509065105 46 207 0.0 0.0 0.00 0.00 0.00 89 1014.8
20260509064602 47 208 0.0 0.0 0.00 0.00 0.00 88 1014.8
20260509064100 47 207 0.0 0.0 0.00 0.00 0.00 88 1015.0
20260509063556 47 199 0.0 0.0 0.00 0.00 0.00 87 1014.9
20260509063053 47 205 0.0 0.0 0.00 0.00 0.00 86 1015.1
20260509062550 46 206 0.0 0.0 0.00 0.00 0.00 86 1014.9
20260509062048 47 175 0.0 0.0 0.00 0.00 0.00 86 1014.9
20260509061544 47 184 0.0 0.0 0.00 0.00 0.00 86 1015.1
20260509061042 46 197 0.0 0.0 0.00 0.00 0.00 85 1015.3
20260509060539 46 169 0.0 0.0 0.00 0.00 0.00 86 1015.4
20260509060034 46 224 0.0 0.0 0.00 0.00 0.00 86 1015.4
20260509055529 46 196 0.0 0.0 0.00 0.00 0.00 85 1015.3
20260509055021 46 218 0.0 0.0 0.00 0.00 0.00 85 1015.4
20260509054517 47 170 0.0 0.0 0.00 0.00 0.00 85 1015.4
20260509054016 47 200 0.0 0.0 0.00 0.00 0.00 86 1015.5
20260509053514 47 231 0.0 0.0 0.00 0.00 0.00 85 1015.6
20260509053010 47 197 0.0 0.0 0.00 0.00 0.00 86 1015.5
20260509052508 47 208 0.0 0.0 0.00 0.00 0.00 85 1015.3
20260509052006 47 207 0.0 0.0 0.00 0.00 0.00 84 1015.4
20260509051504 46 241 0.0 0.0 0.00 0.00 0.00 84 1015.4
20260509051001 46 268 0.0 0.0 0.00 0.00 0.00 87 1015.4
20260509050457 46 213 0.0 0.0 0.00 0.00 0.00 87 1015.4
20260509045953 46 174 0.0 0.0 0.00 0.00 0.00 87 1015.7
20260509045451 46 175 0.0 0.0 0.00 0.00 0.00 85 1015.5
20260509044948 47 164 0.0 0.0 0.00 0.00 0.00 84 1015.5
20260509044446 47 183 0.0 0.0 0.00 0.00 0.00 83 1015.6
20260509043942 47 191 0.0 0.0 0.00 0.00 0.00 83 1015.5
20260509043438 47 197 0.0 0.0 0.00 0.00 0.00 83 1015.5
20260509042934 47 201 0.0 0.0 0.00 0.00 0.00 83 1015.5
20260509042431 47 196 0.0 0.0 0.00 0.00 0.00 82 1015.7
20260509041927 47 220 0.0 0.0 0.00 0.00 0.00 82 1015.7
20260509041424 47 229 0.0 0.0 0.00 0.00 0.00 82 1015.6
20260509040922 47 233 0.0 0.0 0.00 0.00 0.00 81 1015.5
20260509040420 47 192 0.0 0.0 0.00 0.00 0.00 82 1015.6
20260509035916 47 232 0.0 0.0 0.00 0.01 0.01 84 1015.7
20260509035414 46 208 0.0 0.0 0.00 0.01 0.01 86 1015.8
20260509034910 47 220 0.0 0.0 0.00 0.01 0.01 88 1016.0
20260509034408 47 221 0.0 0.0 0.00 0.01 0.01 87 1015.8
20260509033905 47 209 0.0 0.0 0.00 0.01 0.01 85 1015.7
20260509033402 47 237 0.0 0.0 0.00 0.01 0.01 86 1015.5
20260509032858 47 241 0.0 0.0 0.00 0.01 0.01 86 1015.5
20260509032355 47 302 0.0 0.0 0.00 0.01 0.01 85 1015.4
20260509031854 47 232 0.0 0.0 0.00 0.01 0.01 83 1015.5
20260509031351 48 208 0.0 0.0 0.00 0.01 0.01 82 1015.5
20260509030848 48 212 0.0 0.0 0.00 0.01 0.01 82 1015.2
20260509030346 48 167 0.0 0.0 0.00 0.01 0.01 80 1015.2
20260509025843 48 184 0.0 0.0 0.00 0.01 0.01 77 1015.2
20260509025338 48 208 0.0 0.0 0.00 0.01 0.01 75 1015.3
20260509024833 48 156 0.0 0.0 0.00 0.01 0.01 77 1015.1